FW7253 Weather Reports


time (UTC)temp
C
wind
direction
speed
KPH
gust
KPH
rain 1hr
cm
rain 24hr
cm
rain mn
cm
humidity
%
barometer
mb
20260507135033 13 136 4.8 17.7 0.00 0.00 0.00 35 1017.9
20260507134553 13 165 8.0 17.7 0.00 0.00 0.00 33 1018.0
20260507134033 13 155 4.8 22.5 0.00 0.00 0.00 34 1017.9
20260507133533 13 136 8.0 22.5 0.00 0.00 0.00 34 1017.8
20260507133048 13 208 8.0 22.5 0.00 0.00 0.00 34 1017.9
20260507132532 13 203 3.2 9.7 0.00 0.00 0.00 30 1017.8
20260507132036 13 217 3.2 12.9 0.00 0.00 0.00 29 1017.8
20260507131556 13 139 4.8 16.1 0.00 0.00 0.00 29 1017.8
20260507131032 13 100 4.8 16.1 0.00 0.00 0.00 27 1017.7
20260507130532 13 217 6.4 12.9 0.00 0.00 0.00 29 1017.7
20260507130101 13 214 4.8 12.9 0.00 0.00 0.00 27 1017.7
20260507125532 13 119 3.2 8.0 0.00 0.00 0.00 31 1017.7
20260507125033 13 165 3.2 11.3 0.00 0.00 0.00 30 1017.8
20260507124551 13 126 4.8 11.3 0.00 0.00 0.00 29 1017.8
20260507124036 13 123 3.2 11.3 0.00 0.00 0.00 28 1017.8
20260507123533 13 321 1.6 11.3 0.00 0.00 0.00 30 1017.8
20260507123042 12 269 6.4 11.3 0.00 0.00 0.00 28 1017.8
20260507122532 12 83 1.6 14.5 0.00 0.00 0.00 28 1017.9
20260507122033 12 236 6.4 14.5 0.00 0.00 0.00 29 1017.9
20260507121540 12 282 3.2 11.3 0.00 0.00 0.00 29 1017.8
20260507121033 12 104 1.6 17.7 0.00 0.00 0.00 30 1017.8
20260507120532 12 178 11.3 17.7 0.00 0.00 0.00 29 1017.9
20260507120042 12 177 9.7 14.5 0.00 0.00 0.00 27 1017.8
20260507115534 13 211 4.8 14.5 0.00 0.00 0.00 31 1017.8
20260507115033 12 130 3.2 16.1 0.00 0.00 0.00 30 1017.8
20260507114600 12 0 6.4 16.1 0.00 0.00 0.00 29 1017.9
20260507114033 12 209 4.8 16.1 0.00 0.00 0.00 32 1017.9
20260507113533 12 140 3.2 16.1 0.00 0.00 0.00 31 1017.9
20260507113045 12 217 8.0 16.1 0.00 0.00 0.00 31 1018.0
20260507112533 12 187 6.4 11.3 0.00 0.00 0.00 31 1018.0
20260507112032 12 156 4.8 11.3 0.00 0.00 0.00 31 1018.0
20260507111542 12 220 3.2 11.3 0.00 0.00 0.00 32 1018.0
20260507111033 12 214 4.8 9.7 0.00 0.00 0.00 29 1018.1
20260507110533 12 125 3.2 12.9 0.00 0.00 0.00 31 1018.0
20260507110043 11 248 8.0 12.9 0.00 0.00 0.00 32 1017.9
20260507105531 11 302 1.6 8.0 0.00 0.00 0.00 34 1018.0
20260507105034 11 181 3.2 14.5 0.00 0.00 0.00 30 1018.0
20260507104539 11 112 9.7 14.5 0.00 0.00 0.00 32 1017.9
20260507104035 11 115 6.4 12.9 0.00 0.00 0.00 34 1017.8
20260507103537 11 134 6.4 11.3 0.00 0.00 0.00 30 1017.9
20260507103040 11 148 4.8 9.7 0.00 0.00 0.00 35 1017.9
20260507102535 11 56 3.2 9.7 0.00 0.00 0.00 32 1017.9
20260507102035 11 151 4.8 9.7 0.00 0.00 0.00 33 1017.9
20260507101546 11 162 4.8 9.7 0.00 0.00 0.00 34 1017.7
20260507101034 11 197 4.8 9.7 0.00 0.00 0.00 32 1017.8
20260507100537 11 177 3.2 6.4 0.00 0.00 0.00 34 1017.8
20260507100047 11 173 3.2 8.0 0.00 0.00 0.00 32 1017.8
20260507095534 10 139 3.2 12.9 0.00 0.00 0.00 34 1017.9
20260507095033 11 17 3.2 16.1 0.00 0.00 0.00 34 1017.8
20260507094541 11 5 8.0 16.1 0.00 0.00 0.00 36 1017.8
20260507094038 10 296 4.8 9.7 0.00 0.00 0.00 35 1017.7
20260507093534 10 127 3.2 8.0 0.00 0.00 0.00 37 1017.7
20260507093048 10 231 1.6 9.7 0.00 0.00 0.00 38 1017.8
20260507092534 10 354 4.8 12.9 0.00 0.00 0.00 35 1017.8
20260507092037 10 340 6.4 12.9 0.00 0.00 0.00 37 1017.9
20260507091541 10 350 3.2 11.3 0.00 0.00 0.00 39 1017.9
20260507091034 10 339 0.0 12.9 0.00 0.00 0.00 36 1017.9
20260507090534 9 248 4.8 12.9 0.00 0.00 0.00 40 1017.8
20260507090039 9 342 0.0 9.7 0.00 0.00 0.00 36 1017.9
20260507085533 9 306 1.6 12.9 0.00 0.00 0.00 36 1017.9
20260507085034 9 289 8.0 12.9 0.00 0.00 0.00 37 1017.8
20260507084547 9 291 3.2 9.7 0.00 0.00 0.00 36 1017.9
20260507084034 9 342 1.6 9.7 0.00 0.00 0.00 39 1017.9
20260507083534 8 348 1.6 11.3 0.00 0.00 0.00 36 1017.8
20260507083047 8 308 6.4 11.3 0.00 0.00 0.00 39 1017.8
20260507082534 8 58 3.2 11.3 0.00 0.00 0.00 36 1017.8
20260507082034 8 131 3.2 11.3 0.00 0.00 0.00 38 1017.9
20260507081548 8 9 3.2 8.0 0.00 0.00 0.00 38 1017.7
20260507081036 8 0 3.2 6.4 0.00 0.00 0.00 39 1017.8
20260507080534 8 338 1.6 11.3 0.00 0.00 0.00 41 1017.7
20260507080047 8 142 1.6 11.3 0.00 0.00 0.00 43 1017.7
20260507075534 8 333 1.6 14.5 0.00 0.00 0.00 42 1017.7
20260507075034 8 337 1.6 14.5 0.00 0.00 0.00 42 1017.7
20260507074602 8 354 8.0 14.5 0.00 0.00 0.00 41 1017.6
20260507074034 7 298 8.0 19.3 0.00 0.00 0.00 45 1017.5
20260507073535 7 326 6.4 19.3 0.00 0.00 0.00 44 1017.5
20260507073039 7 360 11.3 19.3 0.00 0.00 0.00 44 1017.5
20260507072535 7 14 9.7 17.7 0.00 0.00 0.00 45 1017.5
20260507072033 7 309 8.0 16.1 0.00 0.00 0.00 46 1017.4
20260507071546 7 352 8.0 16.1 0.00 0.00 0.00 46 1017.4
20260507071034 6 345 9.7 16.1 0.00 0.00 0.00 46 1017.3
20260507070534 6 331 9.7 17.7 0.00 0.00 0.00 48 1017.3
20260507070046 6 329 9.7 19.3 0.00 0.00 0.00 48 1017.3
20260507065534 6 347 11.3 19.3 0.00 0.00 0.00 47 1017.3
20260507065034 6 340 9.7 19.3 0.00 0.00 0.00 48 1017.4
20260507064541 6 321 12.9 19.3 0.00 0.00 0.00 48 1017.4
20260507064037 6 324 8.0 17.7 0.00 0.00 0.00 49 1017.4
20260507063533 6 307 11.3 16.1 0.00 0.00 0.00 49 1017.3
20260507063043 6 359 8.0 16.1 0.00 0.00 0.00 49 1017.3
20260507062535 5 320 8.0 16.1 0.00 0.00 0.00 50 1017.2
20260507062036 5 332 9.7 19.3 0.00 0.00 0.00 49 1017.2
20260507061539 5 360 12.9 19.3 0.00 0.00 0.00 50 1017.2
20260507061034 5 352 12.9 19.3 0.00 0.00 0.00 50 1017.2
20260507060534 5 320 9.7 16.1 0.00 0.00 0.00 51 1017.1
20260507060040 5 6 9.7 17.7 0.00 0.00 0.00 51 1017.1
20260507055535 5 333 9.7 17.7 0.00 0.00 0.00 51 1017.1
20260507055038 4 359 9.7 20.9 0.00 0.00 0.00 52 1017.1
20260507054549 4 339 11.3 20.9 0.00 0.00 0.00 52 1017.0
20260507054034 4 323 6.4 16.1 0.00 0.00 0.00 53 1017.0
20260507053534 4 342 11.3 16.1 0.00 0.00 0.00 52 1016.8
20260507053050 3 337 8.0 16.1 0.00 0.00 0.00 53 1017.0
20260507052535 3 352 4.8 12.9 0.00 0.00 0.00 54 1017.0
20260507052034 3 334 4.8 12.9 0.00 0.00 0.00 54 1016.8
20260507051545 3 16 6.4 14.5 0.00 0.00 0.00 54 1016.8
20260507051035 3 355 8.0 14.5 0.00 0.00 0.00 54 1016.8
20260507050534 3 351 6.4 14.5 0.00 0.00 0.00 55 1016.7
20260507050042 3 352 6.4 16.1 0.00 0.00 0.00 55 1016.6
20260507045536 3 343 9.7 17.7 0.00 0.00 0.00 55 1016.5
20260507045035 3 326 9.7 17.7 0.00 0.00 0.00 55 1016.6
20260507044547 3 326 9.7 17.7 0.00 0.00 0.00 55 1016.5
20260507044035 2 341 9.7 17.7 0.00 0.00 0.00 56 1016.5
20260507043533 2 314 11.3 17.7 0.00 0.00 0.00 56 1016.5
20260507043046 2 310 9.7 16.1 0.00 0.00 0.00 56 1016.4
20260507042534 2 342 9.7 16.1 0.00 0.00 0.00 56 1016.5
20260507042034 2 341 9.7 20.9 0.00 0.00 0.00 56 1016.5
20260507041549 2 335 9.7 20.9 0.00 0.00 0.00 56 1016.4
20260507041034 2 342 12.9 20.9 0.00 0.00 0.00 56 1016.3
20260507040535 2 24 11.3 17.7 0.00 0.00 0.00 56 1016.3
20260507040046 2 354 11.3 17.7 0.00 0.00 0.00 56 1016.1
20260507035533 2 1 11.3 16.1 0.00 0.00 0.00 56 1016.2
20260507035034 2 342 9.7 16.1 0.00 0.00 0.00 56 1016.0
20260507034552 2 349 9.7 16.1 0.00 0.00 0.00 56 1016.1
20260507034036 2 340 9.7 16.1 0.00 0.00 0.00 56 1016.0
20260507033534 2 357 9.7 14.5 0.00 0.00 0.00 57 1016.0
20260507033044 2 346 8.0 14.5 0.00 0.00 0.00 57 1015.9
20260507032534 2 12 8.0 16.1 0.00 0.00 0.00 57 1015.9
20260507032033 2 342 9.7 16.1 0.00 0.00 0.00 56 1015.9
20260507031603 2 347 8.0 16.1 0.00 0.00 0.00 56 1015.9
20260507031037 2 344 6.4 16.1 0.00 0.00 0.00 56 1015.8
20260507030533 2 20 6.4 16.1 0.00 0.00 0.00 56 1015.8
20260507030053 2 9 9.7 16.1 0.00 0.00 0.00 56 1015.8
20260507025533 2 346 9.7 16.1 0.00 0.00 0.00 56 1015.9
20260507025033 2 346 6.4 14.5 0.00 0.00 0.00 56 1015.8
20260507024546 2 340 6.4 12.9 0.00 0.00 0.00 56 1015.7
20260507024034 2 354 8.0 12.9 0.00 0.00 0.00 56 1015.7
20260507023534 2 331 6.4 11.3 0.00 0.00 0.00 56 1015.6
20260507023047 2 352 4.8 12.9 0.00 0.00 0.00 56 1015.6
20260507022535 2 39 6.4 12.9 0.00 0.00 0.00 55 1015.6
20260507022034 2 16 6.4 12.9 0.00 0.00 0.00 55 1015.5
20260507021543 2 347 8.0 14.5 0.00 0.00 0.00 55 1015.6
20260507021034 3 349 9.7 17.7 0.00 0.00 0.00 55 1015.7
20260507020536 3 359 11.3 17.7 0.00 0.00 0.00 55 1015.5
20260507020049 3 342 9.7 17.7 0.00 0.00 0.00 54 1015.5
20260507015534 3 321 11.3 17.7 0.00 0.00 0.00 55 1015.5
20260507015035 3 349 8.0 16.1 0.00 0.00 0.00 55 1015.5
20260507014557 3 356 9.7 16.1 0.00 0.00 0.00 54 1015.4
20260507014035 3 1 9.7 16.1 0.00 0.00 0.00 54 1015.5
20260507013533 3 351 8.0 16.1 0.00 0.00 0.00 54 1015.4
20260507013038 3 359 9.7 16.1 0.00 0.00 0.00 54 1015.3
20260507012533 3 354 8.0 16.1 0.00 0.00 0.00 54 1015.4
20260507012033 3 314 8.0 16.1 0.00 0.00 0.00 54 1015.2
20260507011545 3 357 8.0 16.1 0.00 0.00 0.00 54 1015.3
20260507011033 3 345 6.4 14.5 0.00 0.00 0.00 54 1015.2
20260507010534 3 345 9.7 14.5 0.00 0.00 0.00 54 1015.3
20260507010044 3 358 9.7 16.1 0.00 0.00 0.00 54 1015.2
20260507005536 3 343 9.7 17.7 0.00 0.00 0.00 54 1015.2
20260507005034 3 343 9.7 17.7 0.00 0.00 0.00 54 1015.2
20260507004540 3 334 11.3 19.3 0.00 0.00 0.00 54 1015.1
20260507004035 3 335 12.9 19.3 0.00 0.00 0.00 54 1015.1
20260507003536 3 359 11.3 20.9 0.00 0.00 0.00 54 1015.1
20260507003043 3 321 11.3 20.9 0.00 0.00 0.00 53 1015.0
20260507002534 3 6 9.7 19.3 0.00 0.00 0.00 53 1014.9
20260507002034 3 335 9.7 19.3 0.00 0.00 0.00 52 1015.0
20260507001541 3 341 11.3 17.7 0.00 0.00 0.00 52 1014.9
20260507001033 3 333 8.0 17.7 0.00 0.00 0.00 52 1015.0
20260507000536 3 347 6.4 17.7 0.00 0.00 0.00 52 1015.1
20260507000042 3 333 9.7 17.7 0.00 0.00 0.00 51 1014.8
20260506235534 4 347 9.7 17.7 0.00 0.00 0.00 51 1014.8
20260506235033 3 27 9.7 16.1 0.00 0.00 0.00 51 1014.8
20260506234538 3 323 8.0 14.5 0.00 0.00 0.00 52 1014.7
20260506234034 3 15 6.4 14.5 0.00 0.00 0.00 53 1014.8
20260506233534 3 27 0.0 11.3 0.00 0.00 0.00 52 1014.7
20260506233055 3 336 4.8 12.9 0.00 0.00 0.00 51 1014.7
20260506232533 4 349 6.4 17.7 0.00 0.00 0.00 51 1014.6
20260506232033 4 339 6.4 17.7 0.00 0.00 0.00 50 1014.5
20260506231544 4 352 9.7 17.7 0.00 0.00 0.00 50 1014.5
20260506231034 4 328 9.7 19.3 0.00 0.00 0.00 50 1014.5
20260506230533 4 323 11.3 19.3 0.00 0.00 0.00 50 1014.3
20260506230043 4 351 11.3 19.3 0.00 0.00 0.00 49 1014.3
20260506225536 4 326 11.3 17.7 0.00 0.00 0.00 49 1014.2
20260506225034 5 334 11.3 20.9 0.00 0.00 0.00 49 1014.3
20260506224550 5 339 14.5 20.9 0.00 0.00 0.00 49 1014.2
20260506224034 5 330 9.7 19.3 0.00 0.00 0.00 48 1014.2
20260506223533 5 340 8.0 16.1 0.00 0.00 0.00 49 1014.3
20260506223038 5 336 8.0 16.1 0.00 0.00 0.00 48 1014.2
20260506222534 5 11 8.0 14.5 0.00 0.00 0.00 48 1014.2
20260506222034 5 333 6.4 17.7 0.00 0.00 0.00 48 1014.1
20260506221546 5 353 3.2 17.7 0.00 0.00 0.00 47 1014.1
20260506221033 5 354 9.7 17.7 0.00 0.00 0.00 46 1014.0
20260506220534 5 327 9.7 19.3 0.00 0.00 0.00 46 1014.1
20260506220045 5 22 9.7 19.3 0.00 0.00 0.00 46 1014.0
20260506215537 5 339 9.7 19.3 0.00 0.00 0.00 46 1013.9
20260506215035 5 335 9.7 17.7 0.00 0.00 0.00 46 1013.9
20260506214544 5 319 9.7 17.7 0.00 0.00 0.00 46 1013.9
20260506214034 5 328 9.7 14.5 0.00 0.00 0.00 45 1013.9
20260506213534 5 36 6.4 12.9 0.00 0.00 0.00 45 1013.9
20260506213048 5 344 4.8 12.9 0.00 0.00 0.00 46 1013.8
20260506212534 5 345 3.2 9.7 0.00 0.00 0.00 45 1013.7
20260506212037 5 356 3.2 14.5 0.00 0.00 0.00 44 1013.7
20260506211539 5 42 4.8 14.5 0.00 0.00 0.00 44 1013.7
20260506211034 5 13 9.7 14.5 0.00 0.00 0.00 43 1013.6
20260506210534 6 29 4.8 14.5 0.00 0.00 0.00 42 1013.5
20260506210038 6 18 8.0 16.1 0.00 0.00 0.00 42 1013.6
20260506205537 6 331 8.0 17.7 0.00 0.00 0.00 41 1013.5
20260506205037 6 329 9.7 19.3 0.00 0.00 0.00 41 1013.6
20260506204550 6 356 8.0 19.3 0.00 0.00 0.00 42 1013.6
20260506204033 5 19 3.2 12.9 0.00 0.00 0.00 43 1013.5
20260506203534 6 0 1.6 11.3 0.00 0.00 0.00 44 1013.5
20260506203045 6 8 3.2 12.9 0.00 0.00 0.00 42 1013.5
20260506202535 6 344 4.8 12.9 0.00 0.00 0.00 41 1013.5
20260506202033 6 354 8.0 12.9 0.00 0.00 0.00 41 1013.4
20260506201545 6 360 4.8 9.7 0.00 0.00 0.00 42 1013.3
20260506201034 6 332 3.2 9.7 0.00 0.00 0.00 44 1013.4
20260506200533 6 53 4.8 12.9 0.00 0.00 0.00 42 1013.5
20260506200040 6 329 4.8 12.9 0.00 0.00 0.00 42 1013.4
20260506195533 6 16 4.8 11.3 0.00 0.00 0.00 43 1013.3
20260506195037 6 347 1.6 6.4 0.00 0.00 0.00 46 1013.2
20260506194541 6 60 1.6 6.4 0.00 0.00 0.00 46 1013.2
20260506194033 6 4 0.0 4.8 0.00 0.00 0.00 48 1013.2
20260506193534 7 0 0.0 4.8 0.00 0.00 0.00 49 1013.1
20260506193055 7 298 1.6 4.8 0.00 0.00 0.00 48 1013.1
20260506192534 7 0 0.0 0.0 0.00 0.00 0.00 48 1013.1
20260506192036 7 0 0.0 3.2 0.00 0.00 0.00 48 1013.0
20260506191548 7 0 0.0 3.2 0.00 0.00 0.00 47 1013.0
20260506191034 7 304 0.0 1.6 0.00 0.00 0.00 46 1012.8
20260506190534 8 302 0.0 1.6 0.00 0.00 0.00 46 1012.9
20260506190045 8 0 0.0 3.2 0.00 0.00 0.00 46 1012.9
20260506185533 8 0 0.0 4.8 0.00 0.00 0.00 45 1012.8
20260506185034 8 182 1.6 6.4 0.00 0.00 0.00 43 1012.7
20260506184543 8 217 1.6 6.4 0.00 0.00 0.00 44 1012.7
20260506184034 8 217 4.8 6.4 0.00 0.00 0.00 43 1012.7
20260506183534 8 212 3.2 8.0 0.00 0.00 0.00 42 1012.7
20260506183039 9 226 4.8 8.0 0.00 0.00 0.00 42 1012.7
20260506182533 9 231 4.8 8.0 0.00 0.00 0.00 42 1012.6
20260506182033 9 240 4.8 9.7 0.00 0.00 0.00 39 1012.5
20260506181545 9 183 6.4 9.7 0.00 0.00 0.00 37 1012.6
20260506181036 10 207 6.4 14.5 0.00 0.00 0.00 38 1012.6
20260506180536 10 237 8.0 14.5 0.00 0.00 0.00 37 1012.6
20260506180059 10 218 9.7 14.5 0.00 0.00 0.00 37 1012.7
20260506175533 10 210 4.8 12.9 0.00 0.00 0.00 38 1012.5
20260506175033 10 165 4.8 14.5 0.00 0.00 0.00 37 1012.4
20260506174545 10 222 3.2 14.5 0.00 0.00 0.00 37 1012.3
20260506174033 10 233 9.7 14.5 0.00 0.00 0.00 36 1012.4
20260506173533 10 159 4.8 14.5 0.00 0.00 0.00 38 1012.4
20260506173044 10 170 4.8 14.5 0.00 0.00 0.00 36 1012.4
20260506172533 10 233 8.0 14.5 0.00 0.00 0.00 36 1012.3
20260506172033 10 165 8.0 17.7 0.00 0.00 0.00 36 1012.2
20260506171549 10 172 11.3 17.7 0.00 0.00 0.00 37 1012.3
20260506171034 10 196 9.7 16.1 0.00 0.00 0.00 38 1012.3
20260506170532 10 95 8.0 14.5 0.00 0.00 0.00 38 1012.2
20260506170055 10 185 8.0 12.9 0.00 0.00 0.00 38 1012.3
20260506165533 10 219 4.8 11.3 0.00 0.00 0.00 38 1012.4
20260506165033 10 212 6.4 16.1 0.00 0.00 0.00 38 1012.6
20260506164547 10 161 4.8 16.1 0.00 0.00 0.00 39 1012.4
20260506164033 10 129 6.4 16.1 0.00 0.00 0.00 37 1012.6
20260506163537 10 259 4.8 20.9 0.00 0.00 0.00 38 1012.4
20260506163057 10 215 9.7 20.9 0.00 0.00 0.00 38 1012.4
20260506162535 10 188 9.7 19.3 0.00 0.00 0.00 36 1012.5
20260506162037 11 198 11.3 17.7 0.00 0.00 0.00 38 1012.3
20260506161546 10 229 8.0 12.9 0.00 0.00 0.00 38 1012.3
20260506161035 10 174 6.4 14.5 0.00 0.00 0.00 39 1012.3
20260506160533 10 164 4.8 14.5 0.00 0.00 0.00 38 1012.3
20260506160047 10 199 8.0 16.1 0.00 0.00 0.00 39 1012.2
20260506155533 10 105 4.8 16.1 0.00 0.00 0.00 40 1012.2
20260506155033 10 216 4.8 14.5 0.00 0.00 0.00 41 1012.2
20260506154604 10 198 1.6 12.9 0.00 0.00 0.00 39 1012.2
20260506154033 10 203 6.4 12.9 0.00 0.00 0.00 40 1012.2
20260506153533 10 199 8.0 12.9 0.00 0.00 0.00 41 1012.2
20260506153049 10 185 3.2 11.3 0.00 0.00 0.00 38 1012.3
20260506152533 10 120 3.2 8.0 0.00 0.00 0.00 40 1012.4
20260506152034 10 115 3.2 9.7 0.00 0.00 0.00 38 1012.4
20260506151539 10 146 4.8 14.5 0.00 0.00 0.00 40 1012.4
20260506151033 10 131 3.2 19.3 0.00 0.00 0.00 41 1012.3
20260506150535 10 113 9.7 19.3 0.00 0.00 0.00 40 1012.4
20260506150047 10 86 9.7 19.3 0.00 0.00 0.00 40 1012.5
20260506145534 10 129 6.4 19.3 0.00 0.00 0.00 41 1012.5
20260506145033 10 136 4.8 19.3 0.00 0.00 0.00 40 1012.3
20260506144546 10 100 9.7 20.9 0.00 0.00 0.00 40 1012.4
20260506144033 10 67 8.0 20.9 0.00 0.00 0.00 41 1012.4
20260506143537 10 124 4.8 17.7 0.00 0.00 0.00 41 1012.5
20260506143059 10 145 9.7 17.7 0.00 0.00 0.00 40 1012.5
20260506142536 10 184 8.0 17.7 0.00 0.00 0.00 42 1012.5
20260506142034 10 96 6.4 16.1 0.00 0.00 0.00 41 1012.5
20260506141543 10 103 4.8 17.7 0.00 0.00 0.00 41 1012.5
20260506141034 10 97 6.4 17.7 0.00 0.00 0.00 41 1012.4
20260506140535 10 111 8.0 17.7 0.00 0.00 0.00 40 1012.6
20260506140049 10 104 8.0 16.1 0.00 0.00 0.00 39 1012.4
20260506135533 11 77 8.0 16.1 0.00 0.00 0.00 42 1012.5